TimeEDT,TemperatureF,Dew PointF,Humidity,Sea Level PressureIn,VisibilityMPH,Wind Direction,Wind SpeedMPH,Gust SpeedMPH,PrecipitationIn,Events,Conditions,WindDirDegrees,DateUTC
12:56 AM,71.1,68.0,90,30.06,5.0,Calm,Calm,-,N/A,,Clear,0,2013-08-22 04:56:00
1:56 AM,70.0,69.1,97,30.06,4.0,West,3.5,-,N/A,,Clear,280,2013-08-22 05:56:00
2:56 AM,71.1,69.1,93,30.06,4.0,Calm,Calm,-,N/A,,Clear,0,2013-08-22 06:56:00
3:42 AM,69.8,69.8,100,30.05,1.8,Calm,Calm,-,N/A,,Clear,0,2013-08-22 07:42:00
3:49 AM,69.8,69.8,100,30.05,0.8,Calm,Calm,-,N/A,,Mist,0,2013-08-22 07:49:00
3:56 AM,69.1,69.1,100,30.05,0.5,Calm,Calm,-,N/A,Fog,Fog,0,2013-08-22 07:56:00
4:03 AM,69.8,68.0,94,30.04,1.2,SW,3.5,-,N/A,,Partly Cloudy,220,2013-08-22 08:03:00
4:12 AM,68.0,68.0,100,30.04,0.8,Calm,Calm,-,N/A,,Mist,0,2013-08-22 08:12:00
4:24 AM,66.2,66.2,100,30.04,0.2,Calm,Calm,-,N/A,Fog,Fog,0,2013-08-22 08:24:00
4:48 AM,66.2,66.2,100,30.04,1.2,Calm,Calm,-,N/A,,Mostly Cloudy,0,2013-08-22 08:48:00
4:50 AM,66.2,66.2,100,30.04,3.0,Calm,Calm,-,N/A,,Mostly Cloudy,0,2013-08-22 08:50:00
4:56 AM,66.9,66.0,97,30.04,4.0,Calm,Calm,-,N/A,,Mostly Cloudy,0,2013-08-22 08:56:00
5:07 AM,68.0,66.2,94,30.03,1.8,Calm,Calm,-,N/A,,Mostly Cloudy,0,2013-08-22 09:07:00
5:24 AM,68.0,68.0,100,30.03,0.5,SW,4.6,-,N/A,Fog,Fog,230,2013-08-22 09:24:00
5:34 AM,69.8,69.8,100,30.03,1.8,WSW,3.5,-,N/A,,Overcast,240,2013-08-22 09:34:00
5:56 AM,69.1,69.1,100,30.03,1.5,Calm,Calm,-,N/A,,Mostly Cloudy,0,2013-08-22 09:56:00
6:03 AM,69.8,69.8,100,30.03,1.2,Calm,Calm,-,N/A,,Scattered Clouds,0,2013-08-22 10:03:00
6:14 AM,69.8,68.0,94,30.03,1.5,SSW,3.5,-,N/A,,Mostly Cloudy,200,2013-08-22 10:14:00
6:17 AM,69.8,68.0,94,30.03,2.0,Calm,Calm,-,N/A,,Scattered Clouds,0,2013-08-22 10:17:00
6:56 AM,70.0,70.0,100,30.02,2.0,SSW,3.5,-,N/A,,Partly Cloudy,210,2013-08-22 10:56:00
7:52 AM,71.6,71.6,100,30.03,3.0,Calm,Calm,-,N/A,,Clear,0,2013-08-22 11:52:00
7:56 AM,72.0,71.1,97,30.03,3.0,South,4.6,-,N/A,,Clear,190,2013-08-22 11:56:00
8:29 AM,71.6,71.6,100,30.02,2.5,SSW,5.8,-,N/A,,Clear,200,2013-08-22 12:29:00
8:40 AM,71.6,71.6,100,30.02,3.0,SSW,4.6,-,N/A,,Partly Cloudy,210,2013-08-22 12:40:00
8:56 AM,73.0,71.1,93,30.02,3.0,South,5.8,-,N/A,,Scattered Clouds,190,2013-08-22 12:56:00
9:56 AM,75.9,72.0,87,30.01,5.0,South,5.8,-,N/A,,Clear,190,2013-08-22 13:56:00
10:56 AM,77.0,72.0,84,30.01,5.0,WSW,5.8,-,N/A,,Haze,240,2013-08-22 14:56:00
11:20 AM,75.2,71.6,89,30.01,5.0,SSW,6.9,-,N/A,,Mostly Cloudy,210,2013-08-22 15:20:00
11:43 AM,75.2,69.8,83,30.02,7.0,West,17.3,24.2,N/A,,Mostly Cloudy,270,2013-08-22 15:43:00
11:56 AM,73.0,70.0,90,30.02,6.0,WSW,13.8,21.9,0.00,Rain,Light Rain,250,2013-08-22 15:56:00
12:11 PM,71.6,69.8,94,30.02,6.0,West,10.4,-,0.03,Rain,Rain,260,2013-08-22 16:11:00
12:48 PM,71.6,69.8,94,30.01,3.0,West,5.8,-,0.12,Rain,Rain,270,2013-08-22 16:48:00
12:56 PM,71.1,69.1,93,30.00,3.0,West,5.8,-,0.14,Rain,Rain,270,2013-08-22 16:56:00
1:03 PM,71.6,69.8,94,30.00,2.5,West,4.6,-,0.02,Rain,Light Rain,280,2013-08-22 17:03:00
1:11 PM,71.6,69.8,94,29.99,3.0,West,5.8,-,0.03,Rain,Light Rain,260,2013-08-22 17:11:00
1:56 PM,73.0,70.0,90,29.97,6.0,SW,4.6,-,0.04,Rain,Light Rain,220,2013-08-22 17:56:00
2:56 PM,71.1,70.0,96,29.96,4.0,SW,6.9,-,0.00,,Overcast,220,2013-08-22 18:56:00
3:56 PM,73.0,70.0,90,29.94,7.0,Calm,Calm,-,0.00,,Overcast,0,2013-08-22 19:56:00
4:56 PM,73.9,70.0,87,29.90,7.0,South,3.5,-,N/A,,Clear,180,2013-08-22 20:56:00
5:56 PM,73.9,71.1,91,29.89,5.0,South,4.6,-,N/A,,Partly Cloudy,190,2013-08-22 21:56:00
6:05 PM,73.4,71.6,94,29.89,5.0,SW,8.1,-,N/A,,Mostly Cloudy,220,2013-08-22 22:05:00
6:56 PM,73.0,70.0,90,29.89,5.0,SSW,9.2,-,N/A,,Mostly Cloudy,210,2013-08-22 22:56:00
6:59 PM,71.6,69.8,94,29.89,5.0,SSW,10.4,-,N/A,,Mostly Cloudy,200,2013-08-22 22:59:00
7:06 PM,71.6,69.8,94,29.89,6.0,SSW,9.2,-,N/A,,Mostly Cloudy,200,2013-08-22 23:06:00
7:56 PM,71.1,70.0,96,29.88,6.0,SSW,5.8,-,N/A,,Partly Cloudy,200,2013-08-22 23:56:00
8:33 PM,71.6,69.8,94,29.88,6.0,SSW,6.9,-,N/A,,Mostly Cloudy,200,2013-08-23 00:33:00
8:56 PM,71.1,70.0,96,29.89,5.0,SW,4.6,-,N/A,,Overcast,230,2013-08-23 00:56:00
9:12 PM,71.6,69.8,94,29.88,6.0,SSW,6.9,-,N/A,,Overcast,210,2013-08-23 01:12:00
9:56 PM,71.1,69.1,93,29.89,7.0,SSW,5.8,-,N/A,,Mostly Cloudy,210,2013-08-23 01:56:00
10:13 PM,69.8,68.0,94,29.89,8.0,WSW,6.9,-,N/A,,Scattered Clouds,240,2013-08-23 02:13:00
10:56 PM,70.0,68.0,93,29.88,9.0,West,4.6,-,N/A,,Clear,270,2013-08-23 02:56:00
11:56 PM,70.0,68.0,93,29.86,10.0,West,4.6,-,N/A,,Clear,270,2013-08-23 03:56:00